Location: Unspecified
(0.0000°N, 0.0000°E)
Time: 09:06:52
(UTC+00:00)

Courier 1B - All Passes

Search period start: 06 February 2016 00:00
Search period end: 16 February 2016 00:00
Orbit: 962 x 1209 km, 28.3° (Epoch: 05 February)

Date Brightness Start Highest point End Pass type
(mag) Time Alt. Az. Time Alt. Az. Time Alt. Az.
06 Feb - 05:18:15 10° SSW 05:23:09 19° SSE 05:28:11 10° ESE visible
06 Feb - 07:10:25 10° SW 07:17:54 58° SSE 07:25:36 10° ENE daylight
06 Feb - 09:04:58 10° W 09:12:23 46° NNW 09:19:50 10° NE daylight
06 Feb - 11:03:06 10° WNW 11:07:27 16° NNW 11:11:45 10° NNE daylight
06 Feb - 16:53:29 10° N 16:56:50 14° NNE 17:00:07 10° NE daylight
06 Feb - 18:45:09 10° NW 18:51:33 45° NNE 18:57:44 10° E visible
06 Feb - 20:39:18 10° WNW 20:45:36 48° SSW 20:51:49 10° SE visible
06 Feb - 22:37:00 10° SW 22:40:06 14° SSW 22:43:14 10° S night (unlit)
07 Feb - 04:25:39 10° S 04:28:59 13° SSE 04:32:23 10° SE visible
07 Feb - 06:16:54 10° SW 06:23:55 42° SSE 06:31:12 10° E daylight
07 Feb - 08:10:45 10° WSW 08:18:22 62° NNW 08:26:08 10° NE daylight
07 Feb - 10:07:38 10° WNW 10:13:12 21° NNW 10:18:46 10° NNE daylight
07 Feb - 16:01:21 10° N 16:02:39 10° NNE 16:03:55 10° NNE daylight
07 Feb - 17:51:40 10° NW 17:57:44 33° NNE 18:03:33 10° E daylight
07 Feb - 19:45:14 10° WNW 19:51:53 69° SSW 19:58:20 10° SE visible
07 Feb - 21:41:44 10° WSW 21:46:08 19° SSW 21:50:33 10° SSE visible
08 Feb - 05:23:35 10° SSW 05:29:56 31° SSE 05:36:32 10° E visible
08 Feb - 07:16:46 10° WSW 07:24:22 84° NNW 07:32:16 10° ENE daylight
08 Feb - 09:12:39 10° W 09:19:02 27° NNW 09:25:29 10° NNE daylight
08 Feb - 16:58:16 10° NNW 17:03:49 24° NNE 17:09:08 10° ENE daylight
08 Feb - 18:51:19 10° WNW 18:58:10 85° NNE 19:04:42 10° ESE visible
08 Feb - 20:46:54 10° W 20:52:16 26° SSW 20:57:33 10° SSE visible
09 Feb - 04:30:29 10° SSW 04:35:54 23° SSE 04:41:33 10° ESE visible
09 Feb - 06:23:00 10° SW 06:30:25 73° SSE 06:38:11 10° ENE daylight
09 Feb - 08:18:01 10° W 08:24:56 36° NNW 08:32:01 10° NE daylight
09 Feb - 10:17:09 10° NW 10:20:16 13° NNW 10:23:24 10° N daylight
09 Feb - 16:05:01 10° NNW 16:09:47 19° NNE 16:14:23 10° ENE daylight
09 Feb - 17:57:32 10° NW 18:04:24 61° NNE 18:10:54 10° ESE daylight
09 Feb - 19:52:22 10° W 19:58:27 37° SSW 20:04:23 10° SE visible
09 Feb - 21:52:17 10° SSW 21:53:10 10° SSW 21:54:03 10° SSW visible
10 Feb - 03:37:42 10° SSW 03:41:51 16° SSE 03:46:08 10° ESE visible
10 Feb - 05:29:26 10° SW 05:36:29 53° SSE 05:43:56 10° ENE visible
10 Feb - 07:23:41 10° WSW 07:30:53 49° NNW 07:38:23 10° NE daylight
10 Feb - 09:21:19 10° WNW 09:25:57 17° NNW 09:30:37 10° NNE daylight
10 Feb - 15:11:56 10° N 15:15:38 14° NNE 15:19:14 10° NE daylight
10 Feb - 17:03:50 10° NW 17:10:34 44° NNE 17:16:56 10° E daylight
10 Feb - 18:58:03 10° WNW 19:04:42 52° SSW 19:11:04 10° SE visible
10 Feb - 20:55:40 10° WSW 20:59:07 15° SSW 21:02:33 10° S visible
11 Feb - 02:45:38 10° S 02:47:44 11° SSE 02:49:53 10° SE visible
11 Feb - 04:36:04 10° SW 04:42:34 38° SSE 04:49:27 10° E visible
11 Feb - 06:29:36 10° WSW 06:36:54 66° NNW 06:44:36 10° NE daylight
11 Feb - 08:26:06 10° WNW 08:31:42 22° NNW 08:37:26 10° NNE daylight
11 Feb - 14:19:25 10° N 14:21:21 11° NNE 14:23:18 10° NNE daylight
11 Feb - 16:10:15 10° NW 16:16:40 32° NNE 16:22:43 10° E daylight
11 Feb - 18:03:55 10° WNW 18:10:57 74° SSW 18:17:35 10° SE daylight
11 Feb - 20:00:22 10° WSW 20:05:11 20° SSW 20:09:53 10° SSE visible
12 Feb - 03:42:53 10° SSW 03:48:39 28° SSE 03:54:43 10° E visible
12 Feb - 05:35:46 10° WSW 05:42:59 88° NNW 05:50:39 10° ENE visible
12 Feb - 07:31:18 10° W 07:37:34 28° NNW 07:44:03 10° NNE daylight
12 Feb - 15:16:47 10° NNW 15:22:39 25° NNE 15:28:14 10° ENE daylight
12 Feb - 17:09:56 10° WNW 17:17:09 80° NNE 17:23:56 10° ESE daylight
12 Feb - 19:05:30 10° W 19:11:19 29° SSW 19:16:54 10° SSE visible
13 Feb - 02:49:56 10° SSW 02:54:42 20° SSE 02:59:39 10° ESE visible
13 Feb - 04:42:07 10° SW 04:49:06 68° SSE 04:56:32 10° ENE visible
13 Feb - 06:36:50 10° W 06:43:30 37° NNW 06:50:30 10° NE daylight
13 Feb - 08:35:28 10° NW 08:38:47 13° NNW 08:42:07 10° N daylight
13 Feb - 14:23:27 10° NNW 14:28:31 19° NNE 14:33:26 10° ENE daylight
13 Feb - 16:16:04 10° NW 16:23:19 58° NNE 16:30:07 10° ESE daylight
13 Feb - 18:10:55 10° W 18:17:29 40° SSW 18:23:43 10° SE daylight
13 Feb - 20:10:03 10° SW 20:12:08 11° SSW 20:14:12 10° S visible
14 Feb - 01:57:22 10° S 02:00:42 14° SSE 02:04:06 10° SE visible
14 Feb - 03:48:40 10° SW 03:55:15 49° SSE 04:02:15 10° ENE visible
14 Feb - 05:42:38 10° WSW 05:49:31 50° NNW 05:56:49 10° NE visible
14 Feb - 07:39:54 10° WNW 07:44:28 17° NNW 07:49:10 10° NNE daylight
14 Feb - 13:30:20 10° N 13:34:18 15° NNE 13:38:10 10° NE daylight
14 Feb - 15:22:20 10° NW 15:29:24 43° NNE 15:36:04 10° E daylight
14 Feb - 17:16:33 10° WNW 17:23:41 57° SSW 17:30:22 10° SE daylight
14 Feb - 19:14:00 10° WSW 19:18:06 16° SSW 19:22:07 10° SSE visible
15 Feb - 02:55:24 10° SW 03:01:25 34° SSE 03:07:45 10° E visible
15 Feb - 04:48:41 10° WSW 04:55:36 69° NNW 05:03:00 10° NE visible
15 Feb - 06:44:52 10° WNW 06:50:17 22° NNW 06:55:55 10° NNE daylight
15 Feb - 12:37:44 10° N 12:39:57 11° NNE 12:42:09 10° NE daylight
15 Feb - 14:28:42 10° NNW 14:35:24 32° NNE 14:41:46 10° E daylight
15 Feb - 16:22:22 10° WNW 16:29:51 80° SSW 16:36:51 10° SE daylight
15 Feb - 18:18:44 10° WSW 18:24:09 23° SSW 18:29:21 10° SSE daylight
